[[{"header":{"parameterUnit":"m.s-1","parameterCategory":2,"la1":30.2991,"la2":30.254,"lo1":-89.0895,"lo2":-89.0444,"dy":0.0017,"dx":0.0017,"nx":28,"ny":28,"refTime":"2024-08-20T21:00:00:Z","depth":"0","parameterNumber":2,"parameterNumberName":"U-component_of_CURRENTS"},"data":[0,0,0,0,0,0,0,0,0,0,0,0,0,0,0,0,0,0,0,0,0,0,0,0,0,0,0,0,0,0,0,0,0,0,0,0,0,0,0,0,0,0,0,0,0,0,0,0,0,0,0,0,0,0,0,0,0,0,-0.2394,-0.2392,0,-0.219,-0.2188,-0.2185,-0.2058,-0.2058,-0.2057,-0.2057,-0.1792,-0.1785,-0.1779,0,0,0,0,0,0,0,0,0,0,0,0,0,-0.2585,-0.2582,-0.2394,-0.2392,-0.2389,-0.2191,-0.2188,-0.2185,-0.2058,-0.2058,-0.2057,-0.2056,-0.1794,-0.1786,-0.1778,0,0,0,0,0,0,0,0,0,0,0,0,0,-0.2452,-0.2581,-0.2394,-0.2304,-0.2294,-0.2191,-0.2188,-0.2184,-0.2058,-0.2058,-0.2057,-0.2056,-0.1796,-0.1787,-0.1777,-0.1731,0,0,-0.1747,-0.1743,0,0,0,0,0,0,0,0,-0.246,-0.2445,-0.232,-0.231,-0.2299,-0.2151,-0.2158,-0.203,-0.2059,-0.2145,-0.2057,-0.2056,-0.1908,-0.1889,-0.185,-0.1718,-0.1707,-0.1746,-0.174,-0.1736,-0.1733,0,0,0,0,0,0,0,-0.2469,-0.2452,-0.2311,-0.2317,-0.2304,-0.2243,-0.2224,-0.2133,-0.2031,-0.2138,-0.2129,-0.211,-0.1902,-0.186,-0.1843,-0.1703,-0.1746,-0.1737,-0.1731,-0.1727,-0.1528,-0.1528,0,0,0,0,0,0,-0.2504,-0.2461,-0.2318,-0.2305,-0.2381,-0.2241,-0.2219,-0.2197,-0.2032,-0.2008,-0.2111,-0.2105,-0.1877,-0.1854,-0.1833,-0.1787,-0.1736,-0.1726,-0.1721,-0.1527,-0.1528,-0.1529,0,0,0,0,0,0,-0.2509,-0.2493,-0.2326,-0.2381,-0.2355,-0.224,-0.2215,-0.2194,-0.2156,-0.2013,-0.1986,-0.2096,-0.1876,-0.1847,-0.1763,-0.1775,-0.1722,-0.1713,-0.1526,-0.1527,-0.1528,-0.1683,0,0,0,0,0,0,-0.2515,-0.2496,-0.2494,-0.2383,-0.2354,-0.2278,-0.2215,-0.219,-0.2146,-0.2136,-0.1991,-0.1966,-0.1873,-0.1779,-0.1754,-0.176,-0.1705,-0.1526,-0.1527,-0.1528,-0.1677,-0.1689,-0.1699,0,0,0,0,0,-0.2522,-0.2528,-0.2495,-0.2478,-0.2354,-0.2278,-0.2258,-0.2171,-0.2147,-0.2134,-0.2042,-0.197,-0.1768,-0.1771,-0.1741,-0.1746,-0.1525,-0.1526,-0.1528,-0.1672,-0.1686,-0.1699,0,0,0,0,0,0,-0.2612,-0.2512,-0.2474,-0.2449,-0.2376,-0.2258,-0.2235,-0.2187,-0.2104,-0.2092,-0.197,-0.1938,-0.187,-0.1789,-0.1796,-0.1693,-0.1637,-0.1633,-0.1757,-0.177,-0.1781,-0.1792,-0.1697,0,0,0,0,0,-0.2633,-0.2602,-0.2506,-0.2482,-0.2452,-0.235,-0.2311,-0.2253,-0.2165,-0.2128,-0.203,-0.193,-0.1851,-0.1799,-0.1708,-0.1649,-0.162,-0.1634,-0.1645,-0.1656,-0.1645,-0.163,-0.164,-0.1533,-0.1533,-0.1533,0,0,-0.2656,-0.26,-0.258,-0.2498,-0.243,-0.2388,-0.2323,-0.2268,-0.2232,-0.2112,-0.2037,-0.1962,-0.1845,-0.1779,-0.1742,-0.1713,-0.1682,-0.1657,-0.1667,-0.165,-0.1633,-0.1644,-0.1653,-0.1534,-0.1534,-0.1534,0,0,-0.2686,-0.2643,-0.2625,-0.2573,-0.2487,-0.2425,-0.2421,-0.2314,-0.2266,-0.2196,-0.2109,-0.2051,-0.1911,-0.184,-0.1786,-0.1805,-0.1744,-0.1776,-0.1833,-0.1821,-0.183,-0.1838,-0.1872,-0.1881,-0.1779,-0.178,-0.178,0,-0.2717,-0.2679,-0.2611,-0.2582,-0.2541,-0.2453,-0.2428,-0.2369,-0.2251,-0.2219,-0.2191,-0.203,-0.1941,-0.1873,-0.1877,-0.183,-0.1826,-0.1798,-0.1839,-0.1845,-0.185,-0.1882,-0.1891,-0.1787,-0.1786,-0.1785,-0.1785,0,-0.2721,-0.2697,-0.2685,-0.2615,-0.2573,-0.2536,-0.2453,-0.2412,-0.2358,-0.2297,-0.2229,-0.2125,-0.2031,-0.2007,-0.1939,-0.1926,-0.1917,-0.1864,-0.1816,-0.1871,-0.1901,-0.1907,-0.1798,-0.1795,-0.1793,-0.1791,0,0,-0.2737,-0.2699,-0.269,-0.2663,-0.2586,-0.254,-0.2509,-0.244,-0.2421,-0.2337,-0.2315,-0.2201,-0.216,-0.2097,-0.2023,-0.2008,-0.2064,-0.1956,-0.1952,-0.201,-0.2078,-0.2051,-0.2055,-0.2022,-0.2023,-0.2023,-0.2106,0,-0.2745,-0.2726,-0.2704,-0.2666,-0.263,-0.2572,-0.2548,-0.2484,-0.2435,-0.2397,-0.2322,-0.2261,-0.219,-0.2158,-0.2138,-0.2062,-0.2075,-0.2048,-0.1995,-0.1994,-0.1979,-0.2058,-0.19,-0.1957,-0.2111,-0.2112,-0.2113,0,-0.2722,-0.271,-0.2695,-0.2667,-0.2651,-0.2627,-0.2569,-0.254,-0.2489,-0.2459,-0.2415,-0.2355,-0.2308,-0.2249,-0.2191,-0.2178,-0.2142,-0.2103,-0.2104,-0.2017,-0.1976,-0.1911,-0.1961,-0.1921,-0.2121,-0.212,-0.212,0,-0.269,-0.269,-0.2682,-0.2663,-0.2627,-0.2613,-0.2595,-0.2546,-0.2525,-0.2495,-0.2496,-0.2434,-0.2407,-0.2347,-0.2273,-0.223,-0.224,-0.2169,-0.2127,-0.2127,-0.1946,-0.1928,-0.1954,-0.2153,-0.2153,-0.2153,-0.2153,0,-0.2647,-0.2614,-0.267,-0.2633,-0.2609,-0.2608,-0.2584,-0.2552,-0.2561,-0.2549,-0.2522,-0.2511,-0.2427,-0.2415,-0.2335,-0.2271,-0.2296,-0.2155,-0.2141,-0.2001,-0.1988,-0.1902,-0.1904,-0.2156,-0.2155,-0.2155,-0.2154,0,-0.2492,-0.2567,-0.2522,-0.255,-0.2566,-0.2515,-0.2544,-0.2554,-0.2573,-0.257,-0.2567,-0.2575,-0.2547,-0.2502,-0.243,-0.2354,-0.2236,-0.2266,-0.2139,-0.2106,-0.1979,-0.1995,-0.1997,-0.1948,-0.2212,-0.2212,-0.2211,0,-0.235,-0.2342,-0.2414,-0.2431,-0.242,-0.2415,-0.2442,-0.2499,-0.253,-0.2589,-0.2597,-0.2613,-0.2555,-0.2503,-0.2386,-0.2295,-0.2251,-0.2129,-0.1993,-0.1975,-0.1982,-0.1988,-0.1947,-0.1844,-0.184,-0.1838,-0.1836,0,-0.2049,-0.2133,-0.214,-0.2216,-0.2259,-0.2291,-0.2346,-0.2371,-0.2468,-0.2467,-0.2469,-0.2436,-0.2443,-0.2263,-0.2223,-0.2139,-0.2045,-0.2072,-0.2055,-0.1708,-0.1709,-0.1652,-0.184,-0.1812,-0.1815,-0.1816,-0.1818,-0.1818,-0.1803,-0.1787,-0.1909,-0.1953,-0.2046,-0.2114,-0.2086,-0.2176,-0.2161,-0.213,-0.2243,-0.2141,-0.2103,-0.1976,-0.1955,-0.1836,-0.1884,-0.169,-0.1724,-0.1744,-0.1646,-0.1823,-0.1771,-0.1773,-0.1775,-0.1776,-0.1778,0,-0.1514,-0.1603,-0.1645,-0.1746,-0.1814,-0.1921,-0.1997,-0.1951,-0.1865,-0.1884,-0.181,-0.1716,-0.1589,-0.1625,-0.154,-0.147,-0.1432,-0.1445,-0.1379,-0.1361,-0.1493,-0.142,-0.1285,-0.1285,-0.1285,-0.1285,-0.1285,-0.1285,-0.1389,-0.1397,-0.1482,-0.1507,-0.1588,-0.1591,-0.1595,-0.1512,-0.1486,-0.1329,-0.1284,-0.1314,-0.1352,-0.1402,-0.1327,-0.1275,-0.1252,-0.1202,-0.1291,-0.1336,-0.136,-0.1383,-0.1314,-0.1159,-0.1159,-0.1042,-0.1042,-0.1041]},{"header":{"parameterUnit":"m.s-1","parameterCategory":2,"la1":30.2991,"la2":30.254,"lo1":-89.0895,"lo2":-89.0444,"dy":0.0017,"dx":0.0017,"nx":28,"ny":28,"refTime":"2024-08-20T21:00:00:Z","depth":"0","parameterNumber":3,"parameterNumberName":"V-component_of_CURRENTS"},"data":[0,0,0,0,0,0,0,0,0,0,0,0,0,0,0,0,0,0,0,0,0,0,0,0,0,0,0,0,0,0,0,0,0,0,0,0,0,0,0,0,0,0,0,0,0,0,0,0,0,0,0,0,0,0,0,0,0,0,-0.0987,-0.0986,0,-0.0884,-0.0883,-0.0882,-0.0869,-0.087,-0.0871,-0.0871,-0.0836,-0.0835,-0.0833,0,0,0,0,0,0,0,0,0,0,0,0,0,-0.1145,-0.1143,-0.0987,-0.0986,-0.0984,-0.0884,-0.0883,-0.0882,-0.0869,-0.087,-0.0871,-0.0872,-0.0837,-0.0835,-0.0833,0,0,0,0,0,0,0,0,0,0,0,0,0,-0.1065,-0.1142,-0.0987,-0.0965,-0.0961,-0.0884,-0.0883,-0.0881,-0.0869,-0.087,-0.0871,-0.0872,-0.0838,-0.0835,-0.0833,-0.0791,0,0,-0.0825,-0.0824,0,0,0,0,0,0,0,0,-0.1069,-0.1059,-0.0969,-0.0966,-0.0962,-0.0889,-0.0926,-0.0854,-0.0868,-0.0905,-0.0871,-0.0873,-0.0858,-0.0854,-0.0833,-0.0789,-0.0788,-0.0824,-0.0823,-0.0822,-0.0821,0,0,0,0,0,0,0,-0.1075,-0.1063,-0.0948,-0.0968,-0.0963,-0.095,-0.094,-0.0912,-0.0879,-0.0902,-0.0901,-0.0886,-0.0857,-0.0836,-0.0833,-0.0787,-0.0825,-0.0822,-0.0821,-0.082,-0.0725,-0.0725,0,0,0,0,0,0,-0.1084,-0.1068,-0.0951,-0.0945,-0.1018,-0.0946,-0.0935,-0.0913,-0.0877,-0.0872,-0.0885,-0.0886,-0.0839,-0.0836,-0.0831,-0.0781,-0.0822,-0.0819,-0.0818,-0.0726,-0.0725,-0.0724,0,0,0,0,0,0,-0.1087,-0.1074,-0.0955,-0.1004,-0.0988,-0.0942,-0.0917,-0.091,-0.0887,-0.0863,-0.086,-0.087,-0.084,-0.0835,-0.0805,-0.078,-0.0818,-0.0816,-0.0727,-0.0726,-0.0725,-0.068,0,0,0,0,0,0,-0.1092,-0.1076,-0.106,-0.1004,-0.0985,-0.0906,-0.0915,-0.0907,-0.0876,-0.0876,-0.0849,-0.0847,-0.0841,-0.0809,-0.0803,-0.0777,-0.0814,-0.0729,-0.0727,-0.0725,-0.0682,-0.0677,-0.0672,0,0,0,0,0,-0.1098,-0.1066,-0.1059,-0.1045,-0.0965,-0.0905,-0.0894,-0.0868,-0.0874,-0.0855,-0.0843,-0.0848,-0.0794,-0.0806,-0.0799,-0.0771,-0.073,-0.0727,-0.0725,-0.0684,-0.0678,-0.0672,0,0,0,0,0,0,-0.1116,-0.106,-0.1052,-0.1002,-0.0958,-0.0903,-0.0878,-0.0863,-0.0834,-0.084,-0.0829,-0.0824,-0.0791,-0.0787,-0.0801,-0.0741,-0.0764,-0.0761,-0.0736,-0.0729,-0.0724,-0.0724,-0.0812,0,0,0,0,0,-0.1115,-0.1084,-0.1028,-0.0989,-0.0968,-0.0924,-0.0897,-0.0878,-0.0845,-0.0834,-0.0814,-0.0797,-0.0773,-0.0758,-0.0739,-0.0698,-0.0682,-0.0679,-0.0674,-0.067,-0.0665,-0.0616,-0.0606,-0.0717,-0.0717,-0.0717,0,0,-0.1111,-0.1076,-0.1057,-0.0992,-0.0959,-0.0921,-0.0911,-0.0866,-0.0838,-0.0834,-0.0794,-0.0778,-0.076,-0.072,-0.0704,-0.0714,-0.0627,-0.0667,-0.0663,-0.0661,-0.0613,-0.0602,-0.0592,-0.0716,-0.0716,-0.0716,0,0,-0.1095,-0.1057,-0.1033,-0.0994,-0.0942,-0.0912,-0.0901,-0.0844,-0.0823,-0.0778,-0.0773,-0.0736,-0.0702,-0.0673,-0.0659,-0.0611,-0.0605,-0.0613,-0.0579,-0.0531,-0.0521,-0.0512,-0.0466,-0.0453,-0.0607,-0.0606,-0.0606,0,-0.1091,-0.1054,-0.1015,-0.0981,-0.0948,-0.0912,-0.0878,-0.0842,-0.0784,-0.0758,-0.0768,-0.0692,-0.0675,-0.0615,-0.0602,-0.0596,-0.0576,-0.0603,-0.0523,-0.0514,-0.0506,-0.0461,-0.0447,-0.0604,-0.0604,-0.0605,-0.0605,0,-0.1063,-0.103,-0.1008,-0.096,-0.092,-0.088,-0.0829,-0.0791,-0.0768,-0.0731,-0.0669,-0.0635,-0.0593,-0.0576,-0.0574,-0.0504,-0.051,-0.0524,-0.0537,-0.0492,-0.0447,-0.0434,-0.0601,-0.0601,-0.0602,-0.0603,0,0,-0.1037,-0.1002,-0.099,-0.097,-0.0905,-0.0863,-0.0816,-0.0752,-0.072,-0.0662,-0.0614,-0.0551,-0.0533,-0.0515,-0.0497,-0.0449,-0.0366,-0.0462,-0.0461,-0.0414,-0.0258,-0.0196,-0.0177,-0.037,-0.0367,-0.0366,-0.0246,0,-0.1022,-0.0982,-0.0962,-0.0908,-0.0872,-0.0828,-0.0789,-0.0728,-0.0683,-0.0629,-0.057,-0.0526,-0.0511,-0.0493,-0.0436,-0.0393,-0.0332,-0.0397,-0.0312,-0.0309,-0.0257,-0.0159,-0.0144,-0.0031,-0.0234,-0.0231,-0.023,0,-0.0982,-0.0962,-0.0926,-0.0881,-0.0862,-0.0832,-0.0756,-0.0717,-0.0639,-0.0608,-0.0541,-0.0508,-0.0419,-0.0431,-0.0298,-0.0343,-0.0294,-0.0255,-0.025,-0.02,-0.0222,-0.0111,0.0,0.0099,-0.021,-0.0212,-0.0213,0,-0.0955,-0.092,-0.0899,-0.0876,-0.0827,-0.0803,-0.0777,-0.0704,-0.0676,-0.0594,-0.0567,-0.0466,-0.0418,-0.0334,-0.0238,-0.0272,-0.0099,-0.0139,-0.0028,-0.0024,0.0004,0.0007,0.0224,-0.0038,-0.0038,-0.0038,-0.0039,0,-0.0913,-0.088,-0.0892,-0.0861,-0.0835,-0.08,-0.0761,-0.0718,-0.0675,-0.0638,-0.0561,-0.0507,-0.0393,-0.0285,-0.0215,-0.0056,-0.007,0.0011,0.0027,0.0021,0.0025,0.012,0.0147,-0.0034,-0.0035,-0.0036,-0.0037,0,-0.0845,-0.0863,-0.0826,-0.0812,-0.0814,-0.0782,-0.0772,-0.0762,-0.0706,-0.0658,-0.0636,-0.0519,-0.0364,-0.0234,-0.0083,-0.0013,0.0191,0.0166,0.0159,0.0174,0.0358,0.0385,0.0611,0.0679,0.0309,0.0312,0.0314,0,-0.0813,-0.0788,-0.079,-0.0814,-0.0809,-0.0791,-0.0806,-0.0771,-0.0766,-0.066,-0.0647,-0.048,-0.0361,-0.0088,0.0084,0.0267,0.0318,0.0376,0.0325,0.0416,0.0457,0.0466,0.0506,0.0377,0.0379,0.0381,0.0383,0,-0.0737,-0.0742,-0.0732,-0.0792,-0.082,-0.0834,-0.0847,-0.0847,-0.0806,-0.0749,-0.0648,-0.054,-0.0248,-0.0002,0.0261,0.0351,0.0465,0.0423,0.0523,0.0556,0.0575,0.0631,0.0243,0.04,0.0399,0.0397,0.0396,0.0396,-0.0698,-0.0692,-0.0733,-0.0782,-0.0832,-0.0889,-0.0893,-0.0905,-0.0874,-0.0787,-0.067,-0.048,-0.01,0.0285,0.0408,0.0678,0.0635,0.0716,0.0749,0.0756,0.0817,0.0483,0.0654,0.0653,0.0653,0.0653,0.0652,0,-0.0684,-0.0705,-0.075,-0.0823,-0.0899,-0.0911,-0.0944,-0.0942,-0.0908,-0.0779,-0.0655,-0.0229,0.0124,0.0455,0.0859,0.0985,0.0984,0.104,0.1042,0.1072,0.0786,0.0783,0.0984,0.0984,0.0984,0.0984,0.0984,0.0984,-0.0686,-0.0725,-0.0761,-0.0889,-0.0946,-0.101,-0.1023,-0.0985,-0.0892,-0.0658,-0.0412,-0.0202,0.0298,0.0925,0.126,0.127,0.137,0.1359,0.1431,0.1204,0.1175,0.1147,0.1153,0.1429,0.1429,0.1689,0.1691,0.1693]}],[{"header":{"parameterUnit":"m.s-1","parameterCategory":2,"la1":30.2991,"la2":30.254,"lo1":-89.0895,"lo2":-89.0444,"dy":0.0017,"dx":0.0017,"nx":28,"ny":28,"refTime":"2024-08-20T21:00:00:Z","depth":"2","parameterNumber":2,"parameterNumberName":"U-component_of_CURRENTS"},"data":[0,0,0,0,0,0,0,0,0,0,0,0,0,0,0,0,0,0,0,0,0,0,0,0,0,0,0,0,0,0,0,0,0,0,0,0,0,0,0,0,0,0,0,0,0,0,0,0,0,0,0,0,0,0,0,0,0,0,-0.206,-0.2059,0,-0.2007,-0.2006,-0.2005,-0.1998,-0.1999,-0.2,-0.2001,-0.1977,-0.1975,-0.1974,0,0,0,0,0,0,0,0,0,0,0,0,0,-0.2095,-0.2094,-0.206,-0.2059,-0.2059,-0.2007,-0.2006,-0.2005,-0.1998,-0.1999,-0.2,-0.2001,-0.1977,-0.1976,-0.1974,0,0,0,0,0,0,0,0,0,0,0,0,0,-0.2062,-0.2094,-0.206,-0.2051,-0.205,-0.2007,-0.2006,-0.2005,-0.1998,-0.1999,-0.2,-0.2001,-0.1978,-0.1976,-0.1974,-0.194,0,0,-0.1968,-0.1967,0,0,0,0,0,0,0,0,-0.2064,-0.2061,-0.2053,-0.2051,-0.205,-0.2012,-0.2009,-0.1985,-0.1998,-0.2015,-0.2001,-0.2002,-0.1992,-0.1989,-0.1973,-0.1939,-0.1938,-0.1968,-0.1966,-0.1966,-0.1965,0,0,0,0,0,0,0,-0.2067,-0.2063,-0.2036,-0.2052,-0.205,-0.2029,-0.2026,-0.2004,-0.1997,-0.2014,-0.2014,-0.2011,-0.1991,-0.1975,-0.1972,-0.1938,-0.1968,-0.1966,-0.1965,-0.1964,-0.1929,-0.1929,0,0,0,0,0,0,-0.2079,-0.2065,-0.2038,-0.2035,-0.2062,-0.2028,-0.2024,-0.2021,-0.1997,-0.1994,-0.201,-0.2011,-0.1978,-0.1975,-0.1972,-0.1983,-0.1966,-0.1964,-0.1963,-0.1929,-0.1929,-0.1929,0,0,0,0,0,0,-0.208,-0.2077,-0.204,-0.2051,-0.2045,-0.2027,-0.2023,-0.202,-0.2013,-0.1994,-0.1992,-0.2009,-0.1978,-0.1974,-0.1966,-0.198,-0.1963,-0.1961,-0.1929,-0.1929,-0.1929,-0.1972,0,0,0,0,0,0,-0.2082,-0.2078,-0.2081,-0.2052,-0.2045,-0.2035,-0.2022,-0.2018,-0.201,-0.2011,-0.1992,-0.199,-0.1979,-0.1969,-0.1964,-0.1977,-0.196,-0.1928,-0.1929,-0.1929,-0.197,-0.1973,-0.1976,0,0,0,0,0,-0.2083,-0.208,-0.2081,-0.2078,-0.2049,-0.2036,-0.2031,-0.2019,-0.201,-0.2015,-0.1998,-0.1991,-0.1969,-0.1968,-0.1962,-0.1974,-0.1928,-0.1929,-0.1929,-0.1968,-0.1973,-0.1976,0,0,0,0,0,0,-0.2095,-0.2078,-0.2079,-0.2072,-0.2067,-0.2036,-0.2034,-0.2021,-0.2008,-0.2012,-0.1987,-0.1985,-0.1985,-0.1969,-0.1968,-0.1966,-0.195,-0.1949,-0.1982,-0.1985,-0.1989,-0.2006,-0.1958,0,0,0,0,0,-0.21,-0.2095,-0.2082,-0.2079,-0.2079,-0.2057,-0.2048,-0.2044,-0.2027,-0.2022,-0.2008,-0.1993,-0.1978,-0.1975,-0.1962,-0.1954,-0.1953,-0.196,-0.1963,-0.1966,-0.1976,-0.197,-0.1974,-0.1931,-0.1931,-0.1931,0,0,-0.2102,-0.2094,-0.2091,-0.2082,-0.2074,-0.2088,-0.2054,-0.2053,-0.2065,-0.2021,-0.2031,-0.2003,-0.1978,-0.1976,-0.1975,-0.1968,-0.1982,-0.1967,-0.1969,-0.1978,-0.1972,-0.1976,-0.198,-0.1932,-0.1932,-0.1932,0,0,-0.2115,-0.2102,-0.2113,-0.2116,-0.2116,-0.2107,-0.2111,-0.2094,-0.209,-0.2089,-0.2061,-0.2041,-0.2022,-0.2005,-0.1993,-0.2003,-0.1998,-0.2,-0.2031,-0.2026,-0.2029,-0.2032,-0.2058,-0.2063,-0.2003,-0.2003,-0.2003,0,-0.2129,-0.2137,-0.2114,-0.2136,-0.2142,-0.2123,-0.2146,-0.214,-0.2124,-0.212,-0.2108,-0.2065,-0.204,-0.2027,-0.2029,-0.2012,-0.2017,-0.2019,-0.2031,-0.2034,-0.2036,-0.2061,-0.2066,-0.2005,-0.2005,-0.2004,-0.2004,0,-0.2153,-0.2173,-0.2179,-0.2205,-0.2204,-0.222,-0.2216,-0.2221,-0.2208,-0.2198,-0.2183,-0.2135,-0.2111,-0.2095,-0.2063,-0.2063,-0.2065,-0.2035,-0.2024,-0.2044,-0.2068,-0.2073,-0.2008,-0.2007,-0.2006,-0.2006,0,0,-0.213,-0.2194,-0.2196,-0.2221,-0.2244,-0.2239,-0.2271,-0.2279,-0.2293,-0.2272,-0.2279,-0.2228,-0.2192,-0.2174,-0.2125,-0.2111,-0.2128,-0.2083,-0.2081,-0.2115,-0.2143,-0.2054,-0.2051,-0.2099,-0.2099,-0.21,-0.2161,0,-0.2158,-0.2229,-0.2244,-0.2291,-0.2309,-0.2318,-0.2343,-0.2347,-0.2345,-0.2353,-0.2303,-0.2288,-0.2227,-0.2204,-0.2182,-0.2138,-0.2139,-0.2117,-0.2113,-0.2114,-0.2037,-0.2052,-0.1865,-0.1894,-0.2165,-0.2166,-0.2166,0,-0.2135,-0.2197,-0.2272,-0.2323,-0.2333,-0.2364,-0.2384,-0.2407,-0.2421,-0.2417,-0.2399,-0.2367,-0.2337,-0.2279,-0.2238,-0.2227,-0.2194,-0.2163,-0.2164,-0.2068,-0.2032,-0.1913,-0.1892,-0.2174,-0.2173,-0.2172,-0.2172,0,-0.2063,-0.2173,-0.2242,-0.2266,-0.2349,-0.2372,-0.2397,-0.2418,-0.2429,-0.2453,-0.247,-0.2435,-0.2419,-0.2368,-0.2293,-0.2273,-0.226,-0.2225,-0.2127,-0.2122,-0.1955,-0.1934,-0.2212,-0.2211,-0.2211,-0.2211,-0.2211,0,-0.2026,-0.2059,-0.2227,-0.225,-0.2307,-0.2355,-0.2377,-0.2411,-0.2455,-0.2443,-0.249,-0.2465,-0.2438,-0.2417,-0.2343,-0.2248,-0.2302,-0.2141,-0.2124,-0.1966,-0.1945,-0.2172,-0.2167,-0.2213,-0.2213,-0.2212,-0.2212,0,-0.1892,-0.2014,-0.208,-0.2226,-0.2262,-0.2286,-0.2347,-0.2352,-0.2438,-0.2433,-0.2443,-0.2506,-0.2456,-0.2439,-0.2371,-0.2308,-0.2227,-0.2185,-0.2017,-0.1976,-0.2093,-0.2089,-0.2093,-0.209,-0.2088,-0.2086,-0.2084,0,-0.1849,-0.1874,-0.204,-0.2083,-0.2149,-0.2201,-0.221,-0.2299,-0.2294,-0.2399,-0.2377,-0.2421,-0.2344,-0.2296,-0.2192,-0.2102,-0.2156,-0.1912,-0.1817,-0.2095,-0.2078,-0.2078,-0.2077,-0.1635,-0.163,-0.1626,-0.1622,0,-0.173,-0.1787,-0.185,-0.1961,-0.2005,-0.2037,-0.2065,-0.2067,-0.214,-0.2173,-0.2174,-0.2159,-0.2143,-0.1961,-0.1922,-0.1832,-0.1909,-0.182,-0.215,-0.1681,-0.1662,-0.1646,-0.1661,-0.1584,-0.1588,-0.1591,-0.1593,-0.1594,-0.1623,-0.1633,-0.172,-0.1801,-0.1857,-0.1851,-0.1783,-0.1822,-0.1801,-0.1801,-0.1877,-0.1811,-0.184,-0.1639,-0.1559,-0.1524,-0.1637,-0.1559,-0.1572,-0.159,-0.1512,-0.1488,-0.1367,-0.1369,-0.1371,-0.1373,-0.1375,0,-0.15,-0.1495,-0.1555,-0.1629,-0.1627,-0.1708,-0.1661,-0.1575,-0.1479,-0.1514,-0.1481,-0.1338,-0.1239,-0.1283,-0.1154,-0.115,-0.1148,-0.1109,-0.1092,-0.1129,-0.1162,-0.1063,-0.0799,-0.0797,-0.0796,-0.0795,0,0,-0.1419,-0.1394,-0.1429,-0.139,-0.1432,-0.131,-0.1235,-0.1175,-0.1138,-0.1058,-0.1023,-0.1108,-0.1191,-0.0971,-0.0945,-0.0842,-0.0976,-0.0802,-0.1256,-0.1267,-0.1298,-0.1405,-0.1293,0,0,0,0,0]},{"header":{"parameterUnit":"m.s-1","parameterCategory":2,"la1":30.2991,"la2":30.254,"lo1":-89.0895,"lo2":-89.0444,"dy":0.0017,"dx":0.0017,"nx":28,"ny":28,"refTime":"2024-08-20T21:00:00:Z","depth":"2","parameterNumber":3,"parameterNumberName":"V-component_of_CURRENTS"},"data":[0,0,0,0,0,0,0,0,0,0,0,0,0,0,0,0,0,0,0,0,0,0,0,0,0,0,0,0,0,0,0,0,0,0,0,0,0,0,0,0,0,0,0,0,0,0,0,0,0,0,0,0,0,0,0,0,0,0,0.0186,0.0186,0,0.0226,0.0226,0.0226,0.0188,0.0187,0.0186,0.0184,0.0136,0.0135,0.0135,0,0,0,0,0,0,0,0,0,0,0,0,0,0.0028,0.0031,0.0186,0.0187,0.0187,0.0226,0.0226,0.0226,0.0188,0.0187,0.0185,0.0184,0.0136,0.0135,0.0135,0,0,0,0,0,0,0,0,0,0,0,0,0,0.0083,0.0032,0.0186,0.0175,0.0175,0.0226,0.0226,0.0226,0.0189,0.0187,0.0185,0.0183,0.0136,0.0135,0.0135,0.0173,0,0,0.0135,0.0135,0,0,0,0,0,0,0,0,0.008,0.0088,0.0176,0.0176,0.0175,0.0202,0.0153,0.0205,0.0189,0.0181,0.0184,0.0182,0.0153,0.0151,0.016,0.017,0.0168,0.0135,0.0135,0.0135,0.0134,0,0,0,0,0,0,0,0.0076,0.0086,0.0199,0.0177,0.0177,0.0152,0.0158,0.0162,0.0173,0.0181,0.0179,0.0189,0.0151,0.0161,0.0159,0.0167,0.0135,0.0135,0.0134,0.0134,0.0116,0.0116,0,0,0,0,0,0,0.0082,0.0084,0.0198,0.02,0.0125,0.0157,0.0163,0.0194,0.0175,0.0172,0.019,0.0187,0.0162,0.0159,0.0157,0.0117,0.0135,0.0134,0.0134,0.0117,0.0116,0.0116,0,0,0,0,0,0,0.0079,0.0093,0.0196,0.0143,0.0155,0.0162,0.0196,0.0195,0.0184,0.0183,0.0177,0.0178,0.016,0.0157,0.0143,0.0117,0.0134,0.0134,0.0117,0.0117,0.0116,0.0089,0,0,0,0,0,0,0.0075,0.0092,0.01,0.0145,0.0158,0.0212,0.0198,0.0198,0.0196,0.0191,0.0171,0.0166,0.0159,0.0144,0.0143,0.0117,0.0134,0.0118,0.0117,0.0116,0.0091,0.0088,0.0085,0,0,0,0,0,0.0069,0.0087,0.01,0.0113,0.0175,0.0212,0.0216,0.0212,0.0197,0.0194,0.0178,0.0166,0.0138,0.0144,0.0143,0.0116,0.0118,0.0117,0.0116,0.0092,0.0088,0.0086,0,0,0,0,0,0,0.0007,0.0087,0.0102,0.0139,0.0168,0.0206,0.0204,0.0208,0.0197,0.0183,0.0172,0.0167,0.0142,0.0141,0.0148,0.011,0.0122,0.0121,0.0103,0.01,0.0098,0.0094,0.0134,0,0,0,0,0,0.0007,0.0045,0.0106,0.0129,0.0149,0.0176,0.0185,0.0189,0.0196,0.0189,0.0176,0.0159,0.0145,0.0131,0.0124,0.0113,0.0136,0.0093,0.009,0.0088,0.0085,0.0106,0.0105,0.0113,0.0113,0.0113,0,0,-0.0017,0.0034,0.0051,0.0118,0.0142,0.0161,0.0174,0.0191,0.0185,0.0187,0.0158,0.0153,0.0142,0.0121,0.0109,0.0112,0.0101,0.0087,0.0085,0.0083,0.0105,0.0104,0.0104,0.0113,0.0113,0.0113,0,0,-0.0036,0.0011,0.0037,0.0068,0.0115,0.0136,0.0139,0.0173,0.0164,0.0159,0.0148,0.0133,0.0114,0.0101,0.0092,0.0077,0.009,0.0063,0.0041,0.0061,0.0061,0.0061,0.0105,0.0109,0.0057,0.0057,0.0057,0,-0.0073,-0.0023,0.0041,0.0071,0.008,0.0122,0.0127,0.0139,0.0153,0.0144,0.0139,0.0114,0.0105,0.0079,0.0065,0.0069,0.0092,0.0052,0.0058,0.0059,0.0059,0.0104,0.0109,0.0055,0.0056,0.0056,0.0056,0,-0.0063,-0.004,-0.0025,0.003,0.0049,0.006,0.0098,0.0095,0.009,0.01,0.0078,0.008,0.0061,0.0052,0.005,0.0037,0.0058,0.0058,0.0067,0.0057,0.0105,0.0111,0.0053,0.0054,0.0054,0.0055,0,0,-0.0108,-0.0035,-0.0034,-0.0036,0.0024,0.0033,0.0036,0.0047,0.0028,0.0043,0.0022,0.0008,0.0016,0.0008,0.0007,0.0019,0.0045,0.0032,0.0033,0.0077,0.0108,0.0126,0.0135,0.0043,0.0044,0.0044,0.0148,0,-0.0133,-0.011,-0.0058,-0.0072,-0.0068,-0.0029,-0.0038,-0.0024,-0.0015,-0.0021,-0.0002,-0.0019,-0.0002,-0.0019,-0.0,0.0031,0.0055,0.0019,0.011,0.0113,0.0131,0.0139,0.0119,0.0209,0.0153,0.0154,0.0155,0,-0.0143,-0.013,-0.014,-0.0141,-0.0135,-0.0139,-0.0152,-0.0147,-0.0121,-0.0118,-0.0101,-0.0075,-0.0053,-0.0041,0.0032,0.0008,0.0053,0.0087,0.0092,0.012,0.014,0.0207,0.0222,0.0164,0.0164,0.0163,0.0162,0,-0.0224,-0.02,-0.0223,-0.0216,-0.0194,-0.0211,-0.0208,-0.0187,-0.0197,-0.0169,-0.0167,-0.0122,-0.0102,-0.004,0.0053,0.0035,0.0151,0.0137,0.0205,0.0209,0.0215,0.0218,0.0189,0.0189,0.0189,0.0188,0.0188,0,-0.0276,-0.0302,-0.0268,-0.0282,-0.033,-0.0284,-0.0327,-0.0314,-0.0294,-0.0306,-0.0221,-0.021,-0.0104,-0.0017,0.0056,0.0166,0.0163,0.0209,0.0232,0.0207,0.0207,0.0179,0.0177,0.0192,0.0191,0.0191,0.019,0,-0.0365,-0.034,-0.0368,-0.0359,-0.0366,-0.0399,-0.0402,-0.043,-0.0388,-0.0393,-0.0384,-0.0271,-0.0159,-0.0025,0.0095,0.017,0.0268,0.0307,0.0287,0.0304,0.0312,0.0307,0.038,0.0381,0.0383,0.0384,0.0384,0,-0.0425,-0.0434,-0.0432,-0.0462,-0.0464,-0.0497,-0.0527,-0.0496,-0.051,-0.0434,-0.0442,-0.0314,-0.0231,0.0002,0.0153,0.0315,0.0307,0.0389,0.0337,0.0315,0.0329,0.0322,0.0316,0.035,0.0351,0.0351,0.0351,0,-0.0521,-0.0498,-0.0508,-0.0561,-0.06,-0.0635,-0.0662,-0.0682,-0.0636,-0.0603,-0.0526,-0.044,-0.0208,-0.0012,0.0219,0.0299,0.0361,0.04,0.0391,0.0295,0.0292,0.0304,0.0298,0.0355,0.0355,0.0354,0.0354,0.0354,-0.0591,-0.0609,-0.0607,-0.0666,-0.0709,-0.0755,-0.0775,-0.0777,-0.0768,-0.0685,-0.0599,-0.0429,-0.0223,0.0101,0.0256,0.0403,0.0382,0.0418,0.0415,0.0412,0.0379,0.0377,0.0453,0.0453,0.0453,0.0453,0.0454,0,-0.0675,-0.067,-0.0723,-0.077,-0.0834,-0.0826,-0.0854,-0.084,-0.0809,-0.0704,-0.0596,-0.0364,-0.0126,0.0085,0.0319,0.0448,0.0426,0.0463,0.0418,0.0413,0.041,0.0375,0.0449,0.045,0.045,0.045,0,0,-0.0704,-0.0751,-0.0764,-0.0873,-0.0907,-0.0928,-0.0928,-0.0889,-0.08,-0.0678,-0.0536,-0.0351,-0.0097,0.0072,0.0238,0.0357,0.0345,0.0357,0.0347,0.027,0.0265,0.0372,0.0312,0,0,0,0,0]}],[{"header":{"parameterUnit":"m.s-1","parameterCategory":2,"la1":30.2991,"la2":30.254,"lo1":-89.0895,"lo2":-89.0444,"dy":0.0017,"dx":0.0017,"nx":28,"ny":28,"refTime":"2024-08-20T21:00:00:Z","depth":"4","parameterNumber":2,"parameterNumberName":"U-component_of_CURRENTS"},"data":[0,0,0,0,0,0,0,0,0,0,0,0,0,0,0,0,0,0,0,0,0,0,0,0,0,0,0,0,0,0,0,0,0,0,0,0,0,0,0,0,0,0,0,0,0,0,0,0,0,0,0,0,0,0,0,0,0,0,-0.0835,-0.0836,0,-0.0874,-0.0874,-0.0875,-0.0886,-0.0886,-0.0886,-0.0886,-0.1043,-0.1047,-0.1051,0,0,0,0,0,0,0,0,0,0,0,0,0,-0.0735,-0.0737,-0.0835,-0.0836,-0.0836,-0.0874,-0.0874,-0.0875,-0.0886,-0.0886,-0.0886,-0.0886,-0.1042,-0.1047,-0.1052,0,0,0,0,0,0,0,0,0,0,0,0,0,-0.0775,-0.0738,-0.0835,-0.0848,-0.085,-0.0874,-0.0875,-0.0875,-0.0886,-0.0886,-0.0886,-0.0886,-0.104,-0.1046,-0.1052,-0.109,0,0,-0.1072,-0.1074,0,0,0,0,0,0,0,0,-0.0772,-0.0778,-0.0846,-0.0848,-0.085,-0.0878,-0.0897,-0.0954,-0.0886,-0.087,-0.0886,-0.0886,-0.1001,-0.101,-0.1012,-0.1098,-0.1104,-0.1072,-0.1076,-0.1079,-0.108,0,0,0,0,0,0,0,-0.077,-0.0776,-0.0848,-0.0847,-0.0849,-0.0841,-0.0847,-0.0907,-0.0935,-0.0871,-0.0873,-0.0881,-0.1002,-0.1006,-0.1016,-0.1107,-0.1072,-0.1077,-0.1081,-0.1084,-0.1309,-0.1312,0,0,0,0,0,0,-0.0772,-0.0774,-0.0847,-0.0849,-0.0813,-0.0843,-0.0849,-0.0866,-0.0931,-0.0941,-0.0881,-0.0882,-0.0995,-0.1009,-0.1022,-0.113,-0.1079,-0.1084,-0.1088,-0.1307,-0.131,-0.1312,0,0,0,0,0,0,-0.077,-0.0779,-0.0845,-0.0814,-0.0822,-0.0845,-0.0864,-0.0867,-0.0885,-0.0938,-0.095,-0.0898,-0.0995,-0.1013,-0.109,-0.1134,-0.1087,-0.1093,-0.1305,-0.1308,-0.1311,-0.131,0,0,0,0,0,0,-0.0767,-0.0778,-0.0797,-0.0814,-0.0824,-0.0867,-0.0864,-0.0868,-0.0891,-0.0892,-0.0957,-0.097,-0.0997,-0.108,-0.1096,-0.1142,-0.1098,-0.1302,-0.1306,-0.131,-0.1307,-0.1313,-0.1318,0,0,0,0,0,-0.0764,-0.0782,-0.0797,-0.0807,-0.0848,-0.0868,-0.0872,-0.0886,-0.0892,-0.0902,-0.0949,-0.0969,-0.1119,-0.1086,-0.1104,-0.1154,-0.13,-0.1305,-0.131,-0.1305,-0.1312,-0.1318,0,0,0,0,0,0,-0.075,-0.0786,-0.0803,-0.0833,-0.0856,-0.0871,-0.0883,-0.0896,-0.0937,-0.0948,-0.0992,-0.1009,-0.1089,-0.1128,-0.1091,-0.1234,-0.1216,-0.1225,-0.1206,-0.1213,-0.1218,-0.1206,-0.1103,0,0,0,0,0,-0.0757,-0.0775,-0.0812,-0.0833,-0.0849,-0.0871,-0.0884,-0.0898,-0.0933,-0.0949,-0.0991,-0.1055,-0.1122,-0.117,-0.1221,-0.1305,-0.13,-0.1353,-0.1358,-0.1362,-0.1367,-0.1459,-0.1472,-0.1329,-0.1329,-0.1329,0,0,-0.0755,-0.0777,-0.0789,-0.0831,-0.0847,-0.0876,-0.0878,-0.0902,-0.0933,-0.0965,-0.102,-0.1067,-0.1145,-0.1225,-0.1268,-0.1268,-0.1376,-0.1369,-0.1371,-0.1374,-0.1466,-0.1479,-0.1492,-0.1332,-0.1332,-0.1331,0,0,-0.0755,-0.0784,-0.0804,-0.0827,-0.0864,-0.0882,-0.0895,-0.0926,-0.095,-0.1022,-0.1045,-0.1122,-0.1225,-0.1279,-0.1328,-0.1403,-0.1391,-0.1424,-0.1458,-0.1547,-0.1559,-0.157,-0.1464,-0.1466,-0.1441,-0.1441,-0.1441,0,-0.0759,-0.0787,-0.0811,-0.0838,-0.0863,-0.0889,-0.0922,-0.095,-0.1001,-0.1039,-0.105,-0.1206,-0.1259,-0.1371,-0.1388,-0.1416,-0.1398,-0.1421,-0.1552,-0.1564,-0.1575,-0.1465,-0.1467,-0.1442,-0.1442,-0.1442,-0.1442,0,-0.0771,-0.0803,-0.0813,-0.086,-0.0893,-0.0917,-0.0968,-0.0991,-0.1037,-0.1089,-0.1201,-0.1274,-0.1379,-0.1405,-0.1424,-0.1531,-0.1457,-0.1532,-0.1526,-0.1589,-0.1467,-0.1469,-0.1443,-0.1442,-0.1442,-0.1442,0,0,-0.077,-0.0814,-0.0823,-0.0853,-0.0909,-0.0938,-0.0984,-0.1052,-0.111,-0.1182,-0.1274,-0.1387,-0.1437,-0.1493,-0.1529,-0.1595,-0.1612,-0.1593,-0.1598,-0.1465,-0.1664,-0.1604,-0.1598,-0.1722,-0.1725,-0.1728,-0.1502,0,-0.078,-0.0825,-0.0851,-0.0907,-0.0943,-0.0976,-0.1023,-0.1092,-0.1173,-0.1261,-0.1358,-0.1475,-0.1473,-0.1542,-0.1607,-0.1613,-0.1638,-0.1657,-0.1643,-0.1639,-0.1567,-0.1611,-0.1739,-0.1503,-0.1504,-0.1504,-0.1504,0,-0.0804,-0.0827,-0.0878,-0.0943,-0.0965,-0.1,-0.1092,-0.1147,-0.1265,-0.133,-0.1452,-0.1543,-0.1614,-0.1655,-0.1674,-0.1682,-0.1678,-0.1674,-0.1668,-0.1629,-0.1591,-0.1462,-0.1508,-0.1507,-0.1507,-0.1507,-0.1507,0,-0.0802,-0.0863,-0.0901,-0.0921,-0.0989,-0.1018,-0.1065,-0.1177,-0.1249,-0.1396,-0.1466,-0.1583,-0.1628,-0.1687,-0.1673,-0.1691,-0.1671,-0.1708,-0.1622,-0.1607,-0.1722,-0.1714,-0.1777,-0.1778,-0.1778,-0.1779,-0.1779,0,-0.0809,-0.0843,-0.0902,-0.0913,-0.0969,-0.1037,-0.1132,-0.1176,-0.1306,-0.1382,-0.1516,-0.1577,-0.1662,-0.1676,-0.1671,-0.1604,-0.1673,-0.1609,-0.1594,-0.1706,-0.1701,-0.1713,-0.1709,-0.177,-0.1772,-0.1774,-0.1775,0,-0.0791,-0.0832,-0.0865,-0.0927,-0.0964,-0.1004,-0.1134,-0.119,-0.1309,-0.1402,-0.1454,-0.1553,-0.1546,-0.1582,-0.1609,-0.1565,-0.1553,-0.1536,-0.1511,-0.1499,-0.1389,-0.1387,-0.1367,-0.1364,-0.1361,-0.1359,-0.1358,0,-0.0775,-0.0795,-0.0852,-0.0866,-0.0888,-0.0978,-0.1019,-0.1163,-0.1221,-0.1363,-0.137,-0.1449,-0.1495,-0.1403,-0.1471,-0.1423,-0.1468,-0.1376,-0.1514,-0.1383,-0.137,-0.1372,-0.1374,-0.1354,-0.1353,-0.1352,-0.1352,0,-0.0726,-0.0746,-0.0755,-0.0775,-0.0813,-0.0876,-0.0953,-0.1012,-0.1144,-0.1266,-0.1303,-0.1359,-0.1331,-0.1345,-0.1328,-0.1323,-0.1396,-0.1351,-0.1357,-0.1485,-0.1367,-0.1357,-0.1361,-0.1343,-0.1345,-0.1345,-0.1346,0,-0.0676,-0.0656,-0.066,-0.068,-0.0707,-0.0729,-0.0816,-0.0883,-0.0984,-0.116,-0.1149,-0.1227,-0.1296,-0.129,-0.1277,-0.1267,-0.1276,-0.1242,-0.1254,-0.1264,-0.1359,-0.1202,-0.1111,0,0,0,0,0,-0.0629,-0.0596,-0.0573,-0.0568,-0.0575,-0.0613,-0.0729,-0.0824,-0.0978,-0.0976,-0.1089,-0.1094,-0.1128,-0.1172,-0.1145,-0.1216,-0.1253,-0.1178,-0.1213,-0.1296,-0.1306,-0.1441,0,0,0,0,0,0,-0.0597,-0.0567,-0.0536,-0.046,-0.0446,-0.0462,-0.0543,-0.0655,-0.0701,-0.0862,-0.0895,-0.1013,-0.1061,-0.1117,-0.1112,-0.1124,-0.1124,-0.1245,-0.1242,-0.129,-0.1299,-0.1307,-0.1449,0,0,0,0,0]},{"header":{"parameterUnit":"m.s-1","parameterCategory":2,"la1":30.2991,"la2":30.254,"lo1":-89.0895,"lo2":-89.0444,"dy":0.0017,"dx":0.0017,"nx":28,"ny":28,"refTime":"2024-08-20T21:00:00:Z","depth":"4","parameterNumber":3,"parameterNumberName":"V-component_of_CURRENTS"},"data":[0,0,0,0,0,0,0,0,0,0,0,0,0,0,0,0,0,0,0,0,0,0,0,0,0,0,0,0,0,0,0,0,0,0,0,0,0,0,0,0,0,0,0,0,0,0,0,0,0,0,0,0,0,0,0,0,0,0,-0.0024,-0.0024,0,-0.004,-0.004,-0.0041,-0.0038,-0.0037,-0.0037,-0.0036,0.0028,0.0029,0.003,0,0,0,0,0,0,0,0,0,0,0,0,0,0.0024,0.0023,-0.0024,-0.0024,-0.0024,-0.004,-0.004,-0.0041,-0.0038,-0.0037,-0.0037,-0.0036,0.0027,0.0029,0.003,0,0,0,0,0,0,0,0,0,0,0,0,0,0.0002,0.0023,-0.0025,-0.0022,-0.0022,-0.004,-0.004,-0.0041,-0.0038,-0.0037,-0.0037,-0.0036,0.0027,0.0029,0.003,0.0024,0,0,0.0036,0.0036,0,0,0,0,0,0,0,0,0.0003,-0.0,-0.0023,-0.0022,-0.0022,-0.0033,0.0001,-0.0014,-0.0039,-0.0036,-0.0036,-0.0035,0.0016,0.0019,0.0008,0.0027,0.0029,0.0036,0.0037,0.0038,0.0038,0,0,0,0,0,0,0,0.0005,0.0001,-0.0034,-0.0023,-0.0022,-0.0014,-0.0017,-0.0003,-0.0016,-0.0036,-0.0035,-0.0031,0.0017,0.0006,0.001,0.003,0.0036,0.0037,0.0038,0.0039,0.0056,0.0056,0,0,0,0,0,0,0.0011,0.0002,-0.0033,-0.0034,-0.0003,-0.0016,-0.0019,-0.0033,-0.0017,-0.0014,-0.0032,-0.0031,0.0003,0.0008,0.0012,0.0003,0.0038,0.0039,0.004,0.0057,0.0056,0.0055,0,0,0,0,0,0,0.0012,0.0008,-0.0033,-0.0012,-0.0016,-0.0017,-0.0033,-0.0034,-0.0039,-0.0015,-0.001,-0.0035,0.0004,0.001,0.0022,0.0006,0.004,0.0042,0.0057,0.0057,0.0056,-0.0014,0,0,0,0,0,0,0.0013,0.0007,0.0001,-0.0013,-0.0017,-0.0049,-0.0034,-0.0035,-0.0037,-0.0035,-0.0016,-0.001,0.0005,0.0019,0.0024,0.0009,0.0043,0.0058,0.0057,0.0056,-0.0011,-0.0018,-0.0023,0,0,0,0,0,0.0015,-0.0003,-0.0,-0.0004,-0.0028,-0.005,-0.0053,-0.0051,-0.0037,-0.005,-0.0033,-0.001,0.0016,0.002,0.0026,0.0011,0.0059,0.0057,0.0056,-0.0009,-0.0016,-0.0023,0,0,0,0,0,0,0.0026,-0.0004,-0.0001,-0.0024,-0.0035,-0.0048,-0.0053,-0.0051,-0.0051,-0.0042,-0.0018,-0.0011,-0.0011,0.0013,0.0018,0.0013,0.0041,0.0041,-0.001,-0.0017,-0.0022,-0.0024,0.0044,0,0,0,0,0,0.0023,-0.0005,-0.002,-0.0035,-0.0041,-0.0046,-0.0051,-0.0054,-0.0053,-0.0052,-0.0041,-0.0023,-0.0015,-0.0004,0.0004,0.0007,0.0032,0.0002,-0.0004,-0.0009,-0.0006,0.0045,0.0045,0.0051,0.0051,0.0051,0,0,0.0032,0.0007,-0.0002,-0.0035,-0.0041,-0.0065,-0.0048,-0.0062,-0.0076,-0.0043,-0.0056,-0.0045,-0.002,-0.0027,-0.0023,-0.0005,-0.001,-0.0011,-0.0016,-0.001,0.0044,0.0043,0.0043,0.005,0.005,0.005,0,0,0.0022,0.0005,-0.0021,-0.0041,-0.0059,-0.0072,-0.0075,-0.0093,-0.0094,-0.0102,-0.0088,-0.0085,-0.0067,-0.0066,-0.0056,-0.0084,-0.0046,-0.0079,-0.0104,-0.0055,-0.0055,-0.0054,-0.0076,-0.0077,-0.0076,-0.0076,-0.0076,0,0.0034,-0.0007,-0.0028,-0.006,-0.0074,-0.0077,-0.0101,-0.0111,-0.0123,-0.0126,-0.0108,-0.0098,-0.0087,-0.009,-0.0109,-0.0098,-0.0078,-0.0083,-0.0062,-0.006,-0.0059,-0.0081,-0.008,-0.008,-0.0079,-0.0079,-0.0079,0,0.0003,-0.0028,-0.0044,-0.0094,-0.0113,-0.0136,-0.0152,-0.0171,-0.0167,-0.0171,-0.0171,-0.0154,-0.014,-0.0148,-0.0138,-0.0131,-0.0129,-0.008,-0.0045,-0.0063,-0.0087,-0.0085,-0.0085,-0.0084,-0.0083,-0.0082,0,0,0.0004,-0.0053,-0.0061,-0.0091,-0.0134,-0.016,-0.0185,-0.0214,-0.0231,-0.0224,-0.0223,-0.0228,-0.0207,-0.0194,-0.018,-0.0151,-0.0154,-0.0114,-0.011,-0.014,-0.0088,-0.0038,-0.0031,-0.0085,-0.0084,-0.0083,-0.013,0,-0.0016,-0.0071,-0.0097,-0.0156,-0.0191,-0.0211,-0.0239,-0.0264,-0.0269,-0.0274,-0.0241,-0.023,-0.0224,-0.0208,-0.0183,-0.0162,-0.0143,-0.0149,-0.0062,-0.0062,-0.0014,-0.0024,-0.008,-0.0128,-0.0128,-0.0128,-0.0127,0,-0.006,-0.0092,-0.0135,-0.0203,-0.0217,-0.0249,-0.0301,-0.0321,-0.0327,-0.0324,-0.0302,-0.0261,-0.025,-0.0202,-0.0175,-0.0174,-0.0135,-0.0112,-0.0111,-0.0029,-0.0004,-0.0091,-0.0124,-0.0124,-0.0124,-0.0125,-0.0125,0,-0.0081,-0.014,-0.0172,-0.0193,-0.0253,-0.0277,-0.0304,-0.0336,-0.0359,-0.0335,-0.0335,-0.0297,-0.0272,-0.021,-0.0163,-0.016,-0.0109,-0.0094,-0.0021,-0.0021,-0.0024,-0.0023,-0.0034,-0.0034,-0.0034,-0.0034,-0.0034,0,-0.0126,-0.017,-0.0183,-0.0212,-0.0268,-0.029,-0.0345,-0.0371,-0.0379,-0.0406,-0.0346,-0.0336,-0.0258,-0.0211,-0.0165,-0.0099,-0.0106,-0.0032,-0.001,-0.0063,-0.0065,-0.0027,-0.0025,-0.0036,-0.0035,-0.0035,-0.0035,0,-0.0181,-0.0182,-0.0238,-0.0271,-0.0289,-0.0329,-0.0388,-0.0425,-0.0421,-0.0443,-0.0422,-0.0376,-0.0312,-0.0237,-0.0152,-0.011,-0.004,0.0004,-0.0106,-0.0089,-0.0005,-0.0007,0.0037,0.0038,0.004,0.0041,0.0042,0,-0.0219,-0.0241,-0.0279,-0.0314,-0.0337,-0.0388,-0.0432,-0.0451,-0.0479,-0.0471,-0.0473,-0.0395,-0.035,-0.0224,-0.0135,-0.0035,0.0009,0.0015,0.0041,-0.0005,0.0011,0.0007,0.0003,0.0045,0.0045,0.0046,0.0046,0,-0.0288,-0.0286,-0.0315,-0.0369,-0.0417,-0.0479,-0.0523,-0.0543,-0.055,-0.055,-0.0497,-0.0399,-0.0319,-0.0211,-0.0103,-0.0028,-0.0012,0.0031,0.0028,0.0052,0.0006,0.0019,0.0013,0.0052,0.0051,0.005,0.005,0,-0.0327,-0.0355,-0.0367,-0.0425,-0.0485,-0.0535,-0.0563,-0.0569,-0.0578,-0.0546,-0.0531,-0.0419,-0.0362,-0.0206,-0.0119,-0.0022,-0.0008,0.0004,0.0002,-0.0003,0.0029,-0.0033,0.0019,0,0,0,0,0,-0.0357,-0.0379,-0.0431,-0.0472,-0.053,-0.0562,-0.0611,-0.062,-0.0614,-0.0578,-0.0548,-0.0454,-0.0291,-0.0221,-0.0116,-0.0103,-0.0004,0.0021,0.0006,0.0082,0.0075,0.0129,0,0,0,0,0,0,-0.0371,-0.0411,-0.0426,-0.049,-0.053,-0.0586,-0.0618,-0.062,-0.0587,-0.0566,-0.0473,-0.0427,-0.0266,-0.0342,-0.011,-0.0082,-0.0079,0.0097,0.0099,0.0085,0.008,0.0075,0.0128,0,0,0,0,0]}]]